Regional Weather Roundup
Issued by NWS Little Rock, AR

Home | Current Version | Previous Version | Graphics & Text | Print | Product List | Glossary On
Versions: 1 2 3 4 5 6 7 8 9 10 11 12 13 14 15 16 17 18 19 20 21 22 23 24 25 26 27 28 29 30 31 32 33 34 35 36 37 38 39 40 41 42 43 44 45 46 47 48 49 50
000
ASUS44 KLZK 051105
RWRLZK

WEATHER ROUNDUP FOR ARKANSAS
NATIONAL WEATHER SERVICE LITTLE ROCK AR
600 AM CDT TUE MAY 05 2015

NOTE: "FAIR" INDICATES FEW OR NO CLOUDS BELOW 12,000 FEET WITH NO
SIGNIFICANT WEATHER AND/OR OBSTRUCTIONS TO VISIBILITY.

ARZ001-003-010-029-051200-
NORTHWEST ARKANSAS

CITY           SKY/WX    TMP DP  RH WIND       PRES   REMARKS
FAYETTEVILLE   CLEAR     51  51 100 S3        30.14R
FORT SMITH     CLOUDY    63  56  78 E3        30.11R
HARRISON       CLEAR     55  54  96 S6        30.16S
BENTONVILLE    CLEAR     61  54  77 SE5       30.14R
ROGERS         CLEAR     59  56  89 E8        30.14S
SILOAM SPGS    PTCLDY    57  48  72 E5        30.14R
HIGHFILL       PTCLDY    56  52  86 CALM      30.13S
SPRINGDALE     PTCLDY    57  55  94 E3        30.15
$$

ARZ004-005-016-051200-
NORTH CENTRAL ARKANSAS

CITY           SKY/WX    TMP DP  RH WIND       PRES   REMARKS
BATESVILLE     CLOUDY    57  54  88 CALM      30.18R
FLIPPIN        CLEAR     55  54  94 CALM      30.15S
MTN HOME       PTCLDY    59  55  87 SE5       30.16R
$$

ARZ040-041-051200-
WEST CENTRAL ARKANSAS

CITY           SKY/WX    TMP DP  RH WIND       PRES   REMARKS
MENA           MOCLDY    70  64  83 SE7       30.12F
MOUNT IDA      PTCLDY    67  61  81 CALM      30.12R
$$

ARZ009-017-025-026-028-051200-
NORTHEAST ARKANSAS

CITY           SKY/WX    TMP DP  RH WIND       PRES   REMARKS
CORNING          N/A     59  54  82 N5        30.19R
JONESBORO      CLEAR     55  55 100 CALM      30.18R
NEWPORT        CLOUDY    62  56  81 CALM      30.19R
WALNUT RIDGE   CLEAR     61  54  77 CALM      30.17R
BLYTHEVILLE    CLEAR     64  55  72 S7        30.19R
$$

ARZ022-023-033-042-044-051200-
CENTRAL ARKANSAS

CITY           SKY/WX    TMP DP  RH WIND       PRES   REMARKS
LITTLE ROCK    MOCLDY    66  58  75 CALM      30.16R
N LITTLE ROCK    N/A     65  61  85 SE5       30.16R
SEARCY         CLOUDY    62  58  86 CALM      30.18R
HOT SPRINGS    MOCLDY    68  61  78 CALM      30.15R
RUSSELLVILLE   CLEAR     61  59  93 CALM      30.13S
CLINTON        MOCLDY    57  57 100 CALM      30.19S
$$

ARZ036-051200-
EAST ARKANSAS

CITY           SKY/WX    TMP DP  RH WIND       PRES   REMARKS
WEST MEMPHIS   PTCLDY    64  57  78 S5        30.19R
$$

ARZ050-053-066-070-073-051200-
SOUTHWEST ARKANSAS

CITY           SKY/WX    TMP DP  RH WIND       PRES   REMARKS
ARKADELPHIA    FAIR      65  65 100 CALM      30.15R
CAMDEN         CLOUDY    66  63  88 CALM      30.14S
TEXARKANA      CLEAR     65  63  93 E5        30.11R
EL DORADO      MOCLDY    65  62  90 E5        30.14R
DE QUEEN       MOCLDY    67  63  87 SE7       30.09S
$$

ARZ056-057-069-051200-
SOUTHEAST ARKANSAS

CITY           SKY/WX    TMP DP  RH WIND       PRES   REMARKS
PINE BLUFF     CLOUDY    66  62  87 SE7       30.17R
STUTTGART      CLOUDY    68  59  73 SE5       30.18R
MONTICELLO     CLOUDY    64  62  93 E3        30.17R

$$




USA.gov is the U.S. government's official web portal to all federal, state and local government web resources and services.